Location: Blachownia
(50.7807°N, 18.9578°E)
Time: 22:08:57
(UTC+01:00)

ISS - Pass Details

Date: 26 January 2019
Orbit: 403 x 411 km, 51.6° (Epoch: 22 February)

Event Time Altitude Azimuth Distance (km) Brightness Sun altitude
Rises 19:12:35 0° 256° (WSW) 2,334 1.2 -26.3°
Reaches altitude 10° 19:14:40 10° 257° (WSW) 1,476 -0.1 -26.6°
Enters shadow 19:16:03 23° 257° (WSW) 925 -1.4 -26.8°
